Regional Weather Roundup
Issued by NWS

Home | Current Version | Previous Version | Graphics & Text | Print | Product List | Glossary Off
Versions: 1 2 3 4 5 6 7 8 9 10 11 12 13 14 15 16 17 18 19 20 21 22 23 24 25 26 27 28 29 30 31 32 33 34 35 36 37 38 39 40 41 42 43 44 45 46 47 48 49 50

000
ASUS43 KLSX 202159
RWRMO

WEATHER SUMMARY FOR MISSOURI
NATIONAL WEATHER SERVICE SPRINGFIELD MO
500 PM CDT MON OCT 20 2014

NOTE: "FAIR" INDICATES FEW OR NO CLOUDS BELOW 12,000 FEET WITH NO
       SIGNIFICANT WEATHER AND/OR OBSTRUCTIONS TO VISIBILITY.
       CURRENT SKY AND/OR WEATHER CONDITIONS ARE NOT AVAILABLE FOR
       CHILLICOTHE AND FARMINGTON.

MOZ001>031-035>038-043-044-053-054-202300-
...NORTHERN AND WESTERN MISSOURI...

CITY           SKY/WX    TMP DP  RH WIND       PRES   REMARKS
KANSAS CTY INT SUNNY     72  45  37 NW7       30.03S
KANSAS C DTWN  SUNNY     74  44  34 NW6       30.02S
LEE`S SUMMIT   SUNNY     73  45  36 N5        30.03S
ST JOSEPH      SUNNY     75  39  27 N7        30.02F

$$
MOZ066>068-077>081-088>096-101>105-202300-
...SOUTHWEST MISSOURI...

CITY           SKY/WX    TMP DP  RH WIND       PRES   REMARKS
SPRINGFIELD    SUNNY     74  55  51 NW6       30.01S
JOPLIN         SUNNY     74  55  51 NW6       30.03R

$$
MOZ032>034-039>042-045>050-055>058-069>072-202300-
...CENTRAL MISSOURI...

CITY           SKY/WX    TMP DP  RH WIND       PRES   REMARKS
COLUMBIA       SUNNY     72  43  35 NW10      30.00R
JEFFERSON CITY SUNNY     74  40  29 NW8       29.98S
ROLLA          SUNNY     71  46  40 NW10      29.97S
SEDALIA        SUNNY     75  42  30 N8        30.02S
OSAGE BEACH    SUNNY     73  50  43 NW5       30.00R

$$
MOZ051-052-059>065-202300-
...EAST CENTRAL MISSOURI...

CITY           SKY/WX    TMP DP  RH WIND       PRES   REMARKS
ST LOUIS INTL  SUNNY     72  43  35 NW12      29.96R
SPIRIT OF STL  SUNNY     71  42  35 N12       29.95R
ST CHARLES     SUNNY     70  42  36 NW13      29.95R

$$
MOZ072>076-082>087-097>100-106>115-202300-
...SOUTH CENTRAL AND SOUTHEAST MISSOURI...

CITY           SKY/WX    TMP DP  RH WIND       PRES   REMARKS
CAPE GIRARDEAU SUNNY     73  55  53 SW10      29.93S
FARMINGTON     SUNNY     73  48  40 NW13      29.97S
WEST PLAINS    SUNNY     74  55  51 W7        30.00S

$$


USA.gov is the U.S. government's official web portal to all federal, state and local government web resources and services.